Date String (YYYY-MM-DD hh:mm:ss) UTC,Instrument flags,Ambient pressure (hPa),Sample flow (lpm),Bypass flow (lpm),Sample temperature (°C),Ambient temperature (°C),ASC tube jacket temperature (°C),LED temperature (°C),Box temperature (°C),Sample RH (%),Mass concentration (μg/m³),Mass concentration (μg/m³)
DateTimeUTC,F1_M11,P_M11,Q1_M11,Q2_M11,T1_M11,T2_M11,T3_M11,T4_M11,T5_M11,U1_M11,X2_M11,X0_M11
2021-08-14 20:00:00,,0832.8,4.99,0.00,29.2,28.0,00.0,38.1,31.0,31.6,0010.36,0020.27
2021-08-14 20:01:00,,0832.7,5.00,0.00,29.2,27.6,00.0,38.1,30.9,31.2,0010.34,0020.68
2021-08-14 20:02:00,,0832.7,4.99,0.00,29.1,26.2,00.0,38.1,30.5,31.1,0010.28,0020.54
2021-08-14 20:03:00,,0832.8,5.01,0.00,29.0,25.7,00.0,38.1,30.3,31.4,0010.23,0020.18
2021-08-14 20:04:00,,0832.8,5.00,0.00,28.9,26.0,00.0,38.0,30.4,31.3,0010.22,0019.88
2021-08-14 20:05:00,,0832.7,5.00,0.00,28.9,26.4,00.0,38.0,30.5,31.8,0010.24,0020.09
2021-08-14 20:06:00,,0832.8,5.01,0.00,28.9,26.8,00.0,38.0,30.6,31.3,0010.25,0020.47
2021-08-14 20:07:00,,0832.8,4.99,0.00,29.0,27.2,00.0,38.0,30.7,30.4,0010.19,0019.56
2021-08-14 20:08:00,,0832.8,5.01,0.00,29.0,27.5,00.0,38.0,30.8,31.3,0010.17,0019.94
2021-08-14 20:09:00,,0832.8,5.00,0.00,29.1,27.8,00.0,38.0,31.0,30.9,0010.14,0018.94
2021-08-14 20:10:00,,0832.8,4.99,0.00,29.1,28.0,00.0,38.0,31.0,31.2,0010.13,0019.01
2021-08-14 20:11:00,,0832.8,5.01,0.00,29.1,27.0,00.0,38.0,30.7,31.2,0010.10,0019.49
2021-08-14 20:12:00,,0832.7,5.00,0.00,29.0,25.8,00.0,38.0,30.3,30.8,0010.07,0019.57
2021-08-14 20:13:00,,0832.7,5.01,0.00,28.9,25.8,00.0,38.0,30.3,31.3,0010.13,0019.90
2021-08-14 20:14:00,,0832.7,5.00,0.00,28.8,26.1,00.0,38.0,30.4,30.8,0010.10,0020.02
2021-08-14 20:15:00,,0832.7,5.00,0.00,28.8,26.6,00.0,37.9,30.5,30.6,0010.07,0020.45
2021-08-14 20:16:00,,0832.7,4.98,0.00,28.9,27.0,00.0,37.9,30.7,30.6,0010.06,0021.58
2021-08-14 20:17:00,,0832.7,5.01,0.00,28.9,27.3,00.0,37.9,30.8,30.7,0010.03,0021.19
2021-08-14 20:18:00,,0832.7,4.99,0.00,29.0,27.7,00.0,37.9,30.9,31.6,0010.12,0022.02
2021-08-14 20:19:00,,0832.7,5.00,0.00,29.1,27.9,00.0,38.0,31.0,31.9,0010.12,0021.42
2021-08-14 20:20:00,,0832.6,5.00,0.00,29.1,28.1,00.0,38.0,31.0,31.5,0010.15,0021.45
2021-08-14 20:21:00,,0832.6,5.00,0.00,29.1,27.3,00.0,38.0,30.8,31.2,0010.18,0022.93
2021-08-14 20:22:00,,0832.6,5.00,0.00,29.0,26.0,00.0,38.0,30.4,32.0,0010.22,0023.05
2021-08-14 20:23:00,,0832.6,4.99,0.00,28.9,25.7,00.0,38.0,30.3,32.4,0010.26,0023.11
2021-08-14 20:24:00,,0832.6,5.00,0.00,28.8,26.1,00.0,38.0,30.4,31.8,0010.22,0023.53
2021-08-14 20:25:00,,0832.6,5.00,0.00,28.8,26.5,00.0,37.9,30.5,32.3,0010.20,0023.70
2021-08-14 20:26:00,,0832.6,5.01,0.00,28.9,26.9,00.0,37.9,30.6,33.1,0010.23,0023.38
2021-08-14 20:27:00,,0832.6,4.99,0.00,28.9,27.3,00.0,37.9,30.8,31.4,0010.25,0022.25
2021-08-14 20:28:00,,0832.6,4.99,0.00,29.0,27.6,00.0,37.9,30.9,31.5,0010.17,0022.13
2021-08-14 20:29:00,,0832.6,5.02,0.00,29.0,27.9,00.0,37.9,31.0,30.7,0010.06,0021.55
2021-08-14 20:30:00,,0832.6,4.99,0.00,29.1,27.9,00.0,38.0,31.0,30.5,0010.01,0021.83
2021-08-14 20:31:00,,0832.6,5.01,0.00,29.0,26.6,00.0,38.0,30.6,30.5,0010.02,0022.05
2021-08-14 20:32:00,,0832.6,4.99,0.00,28.9,25.8,00.0,38.0,30.3,30.3,0009.97,0020.86
2021-08-14 20:33:00,,0832.5,5.00,0.00,28.8,26.0,00.0,37.9,30.4,31.1,0009.88,0019.82
2021-08-14 20:34:00,,0832.6,5.01,0.00,28.8,26.4,00.0,37.9,30.5,31.5,0009.85,0019.79
2021-08-14 20:35:00,,0832.5,5.00,0.00,28.8,26.8,00.0,37.9,30.6,31.1,0009.79,0019.43
2021-08-14 20:36:00,,0832.6,5.01,0.00,28.9,27.2,00.0,37.9,30.7,30.6,0009.75,0019.24
2021-08-14 20:37:00,,0832.6,4.98,0.00,28.9,27.6,00.0,37.9,30.8,28.2,0009.72,0019.14
2021-08-14 20:38:00,,0832.5,5.01,0.00,29.0,27.9,00.0,37.9,30.9,27.1,0009.64,0018.72
2021-08-14 20:39:00,,0832.5,4.99,0.00,29.1,27.9,00.0,38.0,30.9,27.1,0009.65,0019.01
2021-08-14 20:40:00,,0832.5,5.01,0.00,29.0,26.8,00.0,38.0,30.6,27.5,0009.68,0019.51
2021-08-14 20:41:00,,0832.5,4.99,0.00,28.9,25.8,00.0,37.9,30.3,26.7,0009.68,0019.44
2021-08-14 20:42:00,,0832.5,5.00,0.00,28.8,26.0,00.0,37.9,30.3,27.4,0009.63,0019.36
2021-08-14 20:43:00,,0832.5,5.00,0.00,28.8,26.4,00.0,37.9,30.4,28.1,0009.59,0019.44
2021-08-14 20:44:00,,0832.4,5.00,0.00,28.8,26.8,00.0,37.9,30.6,27.7,0009.62,0019.84
2021-08-14 20:45:00,,0832.4,5.00,0.00,28.9,27.2,00.0,37.9,30.7,27.1,0009.64,0019.37
2021-08-14 20:46:00,,0832.3,5.00,0.00,28.9,27.6,00.0,37.9,30.8,28.0,0009.69,0019.59
2021-08-14 20:47:00,,0832.4,5.01,0.00,29.0,27.9,00.0,37.9,30.9,28.6,0009.73,0019.90
2021-08-14 20:48:00,,0832.4,4.99,0.00,29.0,27.4,00.0,37.9,30.8,29.0,0009.75,0019.88
2021-08-14 20:49:00,,0832.4,5.02,0.00,28.9,26.0,00.0,37.9,30.4,29.2,0009.85,0020.87
2021-08-14 20:50:00,,0832.4,4.99,0.00,28.8,25.8,00.0,37.9,30.2,29.6,0009.94,0021.05
2021-08-14 20:51:00,,0832.3,5.01,0.00,28.8,26.1,00.0,37.9,30.4,29.7,0010.07,0021.30
2021-08-14 20:52:00,,0832.3,5.00,0.00,28.8,26.6,00.0,37.9,30.5,30.6,0010.14,0021.06
2021-08-14 20:53:00,,0832.3,4.98,0.00,28.8,27.0,00.0,37.9,30.6,29.1,0010.25,0021.44
2021-08-14 20:54:00,,0832.3,5.01,0.00,28.9,27.4,00.0,37.9,30.7,28.9,0010.37,0021.20
2021-08-14 20:55:00,,0832.3,4.99,0.00,28.9,27.7,00.0,37.9,30.9,29.9,0010.48,0021.26
2021-08-14 20:56:00,,0832.3,5.00,0.00,29.0,27.9,00.0,37.9,30.9,29.2,0010.56,0021.69
2021-08-14 20:57:00,,0832.3,5.01,0.00,29.0,26.7,00.0,37.9,30.5,29.6,0010.64,0021.30
2021-08-14 20:58:00,,0832.3,5.00,0.00,28.8,25.7,00.0,37.9,30.2,30.0,0010.73,0021.27
2021-08-14 20:59:00,,0832.2,5.00,0.00,28.8,25.9,00.0,37.9,30.3,30.5,0010.83,0021.93
